| time (UTC) | temp F | wind direction | speed knots | gust knots | rain 1hr in | rain 24hr in | rain mn in | humidity % | barometer mb |
| 20260506155332 | 0 | 346 | 1.7 | 4.3 | 0.00 | 0.00 | 0.00 | 1015.7 | |
| 20260506153445 | 0 | 211 | 2.6 | 4.3 | 0.00 | 0.00 | 0.00 | 1014.7 | |
| 20260506152942 | 0 | 54 | 3.5 | 5.2 | 0.00 | 0.00 | 0.00 | 1015.3 | |
| 20260506152439 | 0 | 281 | 4.3 | 7.0 | 0.00 | 0.00 | 0.00 | 1016.0 | |
| 20260506151938 | 0 | 8 | 1.7 | 2.6 | 0.00 | 0.00 | 0.00 | 1016.0 | |
| 20260506151434 | 0 | 2 | 2.6 | 2.6 | 0.00 | 0.00 | 0.00 | 1015.3 | |
| 20260506150932 | 0 | 33 | 1.7 | 2.6 | 0.00 | 0.00 | 0.00 | 1015.3 | |
| 20260506150428 | 0 | 324 | 4.3 | 5.2 | 0.00 | 0.00 | 0.00 | 1015.3 | |
| 20260506145925 | 0 | 17 | 2.6 | 5.2 | 0.00 | 0.00 | 0.00 | 1015.3 | |
| 20260506145421 | 0 | 303 | 3.5 | 5.2 | 0.00 | 0.00 | 0.00 | 1015.3 | |
| 20260506144919 | 0 | 308 | 0.9 | 1.7 | 0.00 | 0.00 | 0.00 | 1015.3 | |
| 20260506144415 | 0 | 331 | 2.6 | 2.6 | 0.00 | 0.00 | 0.00 | 1015.0 | |
| 20260506143914 | 0 | 356 | 2.6 | 2.6 | 0.00 | 0.00 | 0.00 | 1014.7 | |
| 20260506143410 | 0 | 22 | 2.6 | 2.6 | 0.00 | 0.00 | 0.00 | 1014.3 | |
| 20260506142908 | 0 | 257 | 2.6 | 2.6 | 0.00 | 0.00 | 0.00 | 1014.3 | |
| 20260506142407 | 0 | 20 | 2.6 | 4.3 | 0.00 | 0.00 | 0.00 | 1014.7 | |
| 20260506141904 | 0 | 23 | 4.3 | 5.2 | 0.00 | 0.00 | 0.00 | 1014.7 | |
| 20260506141402 | 0 | 39 | 1.7 | 2.6 | 0.00 | 0.00 | 0.00 | 1014.7 | |
| 20260506140900 | 0 | 46 | 2.6 | 2.6 | 0.00 | 0.00 | 0.00 | 1014.3 | |
| 20260506140357 | 0 | 285 | 1.7 | 2.6 | 0.00 | 0.00 | 0.00 | 1014.3 | |
| 20260506135854 | 0 | 335 | 2.6 | 2.6 | 0.00 | 0.00 | 0.00 | 1014.3 | |
| 20260506135351 | 0 | 358 | 1.7 | 2.6 | 0.00 | 0.00 | 0.00 | 1014.3 | |
| 20260506134847 | 0 | 332 | 4.3 | 5.2 | 0.00 | 0.00 | 0.00 | 1014.3 | |
| 20260506134343 | 0 | 341 | 1.7 | 2.6 | 0.00 | 0.00 | 0.00 | 1014.0 | |
| 20260506133840 | 0 | 330 | 3.5 | 4.3 | 0.00 | 0.00 | 0.00 | 1014.0 | |
| 20260506133337 | 0 | 336 | 1.7 | 1.7 | 0.00 | 0.00 | 0.00 | 1014.3 | |
| 20260506132833 | 0 | 352 | 4.3 | 6.1 | 0.00 | 0.00 | 0.00 | 1014.0 | |
| 20260506132331 | 0 | 58 | 2.6 | 4.3 | 0.00 | 0.00 | 0.00 | 1014.7 | |
| 20260506131829 | 0 | 343 | 5.2 | 7.8 | 0.00 | 0.00 | 0.00 | 1014.3 | |
| 20260506131325 | 0 | 18 | 4.3 | 5.2 | 0.00 | 0.00 | 0.00 | 1014.0 | |
| 20260506130822 | 0 | 346 | 3.5 | 6.1 | 0.00 | 0.00 | 0.00 | 1014.0 | |
| 20260506130318 | 0 | 312 | 7.0 | 7.8 | 0.00 | 0.00 | 0.00 | 1014.0 | |
| 20260506125816 | 0 | 323 | 1.7 | 2.6 | 0.00 | 0.00 | 0.00 | 1014.0 | |
| 20260506125314 | 0 | 338 | 1.7 | 4.3 | 0.00 | 0.00 | 0.00 | 1014.0 | |
| 20260506124813 | 0 | 343 | 7.0 | 7.8 | 0.00 | 0.00 | 0.00 | 1014.0 | |
| 20260506124309 | 0 | 323 | 4.3 | 5.2 | 0.00 | 0.00 | 0.00 | 1014.0 | |
| 20260506123807 | 0 | 20 | 2.6 | 4.3 | 0.00 | 0.00 | 0.00 | 1014.0 | |
| 20260506123305 | 0 | 2 | 3.5 | 5.2 | 0.00 | 0.00 | 0.00 | 1013.6 | |
| 20260506122802 | 0 | 335 | 2.6 | 2.6 | 0.00 | 0.00 | 0.00 | 1013.6 | |
| 20260506122259 | 0 | 17 | 4.3 | 5.2 | 0.00 | 0.00 | 0.00 | 1013.6 | |
| 20260506121757 | 0 | 315 | 2.6 | 4.3 | 0.00 | 0.00 | 0.00 | 1013.6 | |
| 20260506121253 | 0 | 333 | 2.6 | 2.6 | 0.00 | 0.00 | 0.00 | 1013.2 | |
| 20260506120751 | 0 | 318 | 7.0 | 8.7 | 0.00 | 0.00 | 0.00 | 1013.2 | |
| 20260506120249 | 0 | 336 | 2.6 | 4.3 | 0.00 | 0.00 | 0.00 | 1013.2 | |
| 20260506115746 | 0 | 319 | 7.0 | 9.6 | 0.00 | 0.00 | 0.00 | 1012.9 | |
| 20260506115244 | 0 | 78 | 2.6 | 4.3 | 0.00 | 0.00 | 0.00 | 1012.9 | |
| 20260506114742 | 0 | 17 | 1.7 | 2.6 | 0.00 | 0.00 | 0.00 | 1012.9 | |
| 20260506114239 | 0 | 34 | 2.6 | 2.6 | 0.00 | 0.00 | 0.00 | 1012.9 | |
| 20260506113738 | 0 | 340 | 3.5 | 7.0 | 0.00 | 0.00 | 0.00 | 1012.9 | |
| 20260506113235 | 0 | 330 | 2.6 | 6.1 | 0.00 | 0.00 | 0.00 | 1012.5 | |
| 20260506112731 | 0 | 355 | 2.6 | 2.6 | 0.00 | 0.00 | 0.00 | 1012.2 | |
| 20260506112229 | 0 | 285 | 3.5 | 6.1 | 0.00 | 0.00 | 0.00 | 1012.5 | |
| 20260506111726 | 0 | 49 | 3.5 | 5.2 | 0.00 | 0.00 | 0.00 | 1012.2 | |
| 20260506111224 | 0 | 256 | 2.6 | 2.6 | 0.00 | 0.00 | 0.00 | 1012.2 | |
| 20260506110721 | 0 | 7 | 2.6 | 2.6 | 0.00 | 0.00 | 0.00 | 1012.2 | |
| 20260506110218 | 0 | 323 | 1.7 | 2.6 | 0.00 | 0.00 | 0.00 | 1011.9 | |
| 20260506105714 | 0 | 8 | 3.5 | 4.3 | 0.00 | 0.00 | 0.00 | 1011.9 | |
| 20260506105211 | 0 | 353 | 2.6 | 4.3 | 0.00 | 0.00 | 0.00 | 1011.9 | |
| 20260506104710 | 0 | 348 | 2.6 | 2.6 | 0.00 | 0.00 | 0.00 | 1011.9 | |
| 20260506104207 | 0 | 279 | 2.6 | 2.6 | 0.00 | 0.00 | 0.00 | 1011.5 | |
| 20260506103704 | 0 | 328 | 3.5 | 5.2 | 0.00 | 0.00 | 0.00 | 1011.9 | |
| 20260506103200 | 0 | 330 | 1.7 | 4.3 | 0.00 | 0.00 | 0.00 | 1011.5 | |
| 20260506102659 | 0 | 282 | 2.6 | 2.6 | 0.00 | 0.00 | 0.00 | 1011.9 | |
| 20260506102156 | 0 | 5 | 2.6 | 4.3 | 0.00 | 0.00 | 0.00 | 1011.5 | |
| 20260506101653 | 0 | 288 | 2.6 | 2.6 | 0.00 | 0.00 | 0.00 | 1011.5 | |
| 20260506101150 | 0 | 298 | 2.6 | 2.6 | 0.00 | 0.00 | 0.00 | 1011.5 | |
| 20260506100648 | 0 | 348 | 2.6 | 4.3 | 0.00 | 0.00 | 0.00 | 1011.2 | |
| 20260506100146 | 0 | 262 | 1.7 | 2.6 | 0.00 | 0.00 | 0.00 | 1011.5 | |
| 20260506095644 | 0 | 307 | 4.3 | 6.1 | 0.00 | 0.00 | 0.00 | 1011.5 | |
| 20260506095140 | 0 | 225 | 1.7 | 1.7 | 0.00 | 0.00 | 0.00 | 1011.5 | |
| 20260506094638 | 0 | 311 | 2.6 | 4.3 | 0.00 | 0.00 | 0.00 | 1011.5 | |
| 20260506094136 | 0 | 269 | 2.6 | 4.3 | 0.00 | 0.00 | 0.00 | 1011.2 | |
| 20260506093634 | 0 | 245 | 1.7 | 1.7 | 0.00 | 0.00 | 0.00 | 1011.2 | |
| 20260506093131 | 0 | 249 | 1.7 | 1.7 | 0.00 | 0.00 | 0.00 | 1010.8 | |
| 20260506092629 | 0 | 349 | 4.3 | 5.2 | 0.00 | 0.00 | 0.00 | 1010.8 | |
| 20260506092125 | 0 | 15 | 1.7 | 1.7 | 0.00 | 0.00 | 0.00 | 1010.8 | |
| 20260506091623 | 0 | 38 | 2.6 | 2.6 | 0.00 | 0.00 | 0.00 | 1010.8 | |
| 20260506091121 | 0 | 328 | 0.9 | 0.9 | 0.00 | 0.00 | 0.00 | 1011.2 | |
| 20260506090619 | 0 | 310 | 1.7 | 2.6 | 0.00 | 0.00 | 0.00 | 1011.2 | |
| 20260506090115 | 0 | 352 | 2.6 | 2.6 | 0.00 | 0.00 | 0.00 | 1011.2 | |
| 20260506085612 | 0 | 243 | 2.6 | 4.3 | 0.00 | 0.00 | 0.00 | 1010.8 | |
| 20260506085108 | 0 | 277 | 2.6 | 2.6 | 0.00 | 0.00 | 0.00 | 1010.8 | |
| 20260506084605 | 0 | 272 | 0.9 | 1.7 | 0.00 | 0.00 | 0.00 | 1010.8 | |
| 20260506084101 | 0 | 319 | 0.9 | 0.9 | 0.00 | 0.00 | 0.00 | 1010.8 | |
| 20260506083558 | 0 | 335 | 2.6 | 4.3 | 0.00 | 0.00 | 0.00 | 1010.8 | |
| 20260506083056 | 0 | 349 | 1.7 | 1.7 | 0.00 | 0.00 | 0.00 | 1010.8 | |
| 20260506082552 | 0 | 340 | 1.7 | 2.6 | 0.00 | 0.00 | 0.00 | 1010.5 | |
| 20260506082048 | 0 | 220 | 0.9 | 0.9 | 0.00 | 0.00 | 0.00 | 1010.5 | |
| 20260506081546 | 0 | 331 | 1.7 | 1.7 | 0.00 | 0.00 | 0.00 | 1010.8 | |
| 20260506081043 | 0 | 240 | 0.9 | 1.7 | 0.00 | 0.00 | 0.00 | 1010.8 | |
| 20260506080541 | 0 | 161 | 0.9 | 0.9 | 0.00 | 0.00 | 0.00 | 1010.5 | |
| 20260506073525 | 0 | 10 | 1.7 | 2.6 | 0.00 | 0.00 | 0.00 | 1010.5 | |
| 20260506073021 | 0 | 304 | 1.7 | 1.7 | 0.00 | 0.00 | 0.00 | 1010.5 | |
| 20260506072519 | 0 | 330 | 4.3 | 5.2 | 0.00 | 0.00 | 0.00 | 1010.5 | |
| 20260506072016 | 0 | 357 | 0.9 | 1.7 | 0.00 | 0.00 | 0.00 | 1010.5 | |
| 20260506071514 | 0 | 280 | 1.7 | 1.7 | 0.00 | 0.00 | 0.00 | 1010.5 | |
| 20260506071011 | 0 | 267 | 1.7 | 1.7 | 0.00 | 0.00 | 0.00 | 1010.5 | |
| 20260506070508 | 0 | 320 | 4.3 | 8.7 | 0.00 | 0.00 | 0.00 | 1010.8 | |
| 20260506062446 | 0 | 296 | 3.5 | 6.1 | 0.00 | 0.00 | 0.00 | 1010.5 | |
| 20260506061942 | 0 | 42 | 1.7 | 2.6 | 0.00 | 0.00 | 0.00 | 1010.5 | |
| 20260506061438 | 0 | 274 | 2.6 | 2.6 | 0.00 | 0.00 | 0.00 | 1010.5 | |
| 20260506060936 | 0 | 35 | 2.6 | 2.6 | 0.00 | 0.00 | 0.00 | 1010.5 | |
| 20260506060434 | 0 | 21 | 4.3 | 5.2 | 0.00 | 0.00 | 0.00 | 1010.5 | |
| 20260506051406 | 0 | 309 | 3.5 | 4.3 | 0.00 | 0.00 | 0.00 | 1010.2 | |
| 20260506050903 | 0 | 272 | 2.6 | 2.6 | 0.00 | 0.00 | 0.00 | 1010.5 | |
| 20260506050401 | 0 | 310 | 2.6 | 4.3 | 0.00 | 0.00 | 0.00 | 1010.2 | |
| 20260506044851 | 0 | 315 | 1.7 | 2.6 | 0.00 | 0.00 | 0.00 | 1010.2 | |
| 20260506044349 | 0 | 287 | 1.7 | 2.6 | 0.00 | 0.00 | 0.00 | 1010.2 | |
| 20260506043845 | 0 | 348 | 3.5 | 4.3 | 0.00 | 0.00 | 0.00 | 1009.8 | |
| 20260506043342 | 0 | 328 | 6.1 | 11.3 | 0.00 | 0.00 | 0.00 | 1009.8 | |
| 20260506042841 | 0 | 332 | 3.5 | 5.2 | 0.00 | 0.00 | 0.00 | 1010.2 | |
| 20260506042340 | 0 | 259 | 1.7 | 2.6 | 0.00 | 0.00 | 0.00 | 1009.8 | |
| 20260506041838 | 0 | 359 | 2.6 | 5.2 | 0.00 | 0.00 | 0.00 | 1009.8 | |
| 20260506041335 | 0 | 309 | 6.1 | 8.7 | 0.00 | 0.00 | 0.00 | 1009.8 | |
| 20260506040832 | 0 | 343 | 2.6 | 2.6 | 0.00 | 0.00 | 0.00 | 1009.8 | |
| 20260506040329 | 0 | 359 | 4.3 | 5.2 | 0.00 | 0.00 | 0.00 | 1009.5 | |
| 20260506035825 | 0 | 334 | 1.7 | 1.7 | 0.00 | 0.00 | 0.00 | 1009.5 | |
| 20260506035323 | 0 | 345 | 3.5 | 7.0 | 0.00 | 0.00 | 0.00 | 1009.8 | |
| 20260506034820 | 0 | 329 | 5.2 | 7.8 | 0.00 | 0.00 | 0.00 | 1009.5 | |
| 20260506034317 | 0 | 3 | 4.3 | 6.1 | 0.00 | 0.00 | 0.00 | 1009.2 | |
| 20260506033814 | 0 | 355 | 4.3 | 6.1 | 0.00 | 0.00 | 0.00 | 1009.5 | |
| 20260506033311 | 0 | 340 | 2.6 | 4.3 | 0.00 | 0.00 | 0.00 | 1009.2 | |
| 20260506032808 | 0 | 23 | 4.3 | 6.1 | 0.00 | 0.00 | 0.00 | 1009.2 | |
| 20260506032306 | 0 | 268 | 1.7 | 1.7 | 0.00 | 0.00 | 0.00 | 1009.2 | |
| 20260506031801 | 0 | 321 | 2.6 | 2.6 | 0.00 | 0.00 | 0.00 | 1008.8 | |
| 20260506031259 | 0 | 276 | 3.5 | 4.3 | 0.00 | 0.00 | 0.00 | 1008.5 | |
| 20260506030757 | 0 | 16 | 4.3 | 5.2 | 0.00 | 0.00 | 0.00 | 1008.8 | |
| 20260506030254 | 0 | 314 | 4.3 | 6.1 | 0.00 | 0.00 | 0.00 | 1008.8 | |
| 20260506025751 | 0 | 327 | 2.6 | 2.6 | 0.00 | 0.00 | 0.00 | 1008.1 | |
| 20260506025247 | 0 | 359 | 6.1 | 7.8 | 0.00 | 0.00 | 0.00 | 1008.1 | |
| 20260506024744 | 0 | 33 | 4.3 | 5.2 | 0.00 | 0.00 | 0.00 | 1008.1 | |
| 20260506024241 | 0 | 1 | 4.3 | 5.2 | 0.00 | 0.00 | 0.00 | 1008.5 | |
| 20260506023737 | 0 | 9 | 4.3 | 4.3 | 0.00 | 0.00 | 0.00 | 1007.5 | |
| 20260506023234 | 0 | 266 | 2.6 | 2.6 | 0.00 | 0.00 | 0.00 | 1007.5 | |
| 20260506022731 | 0 | 0 | 2.6 | 4.3 | 0.00 | 0.00 | 0.00 | 1007.8 | |
| 20260506022229 | 0 | 20 | 2.6 | 2.6 | 0.00 | 0.00 | 0.00 | 1007.5 | |
| 20260506021727 | 0 | 333 | 4.3 | 5.2 | 0.00 | 0.00 | 0.00 | 1007.8 | |
| 20260506021224 | 0 | 352 | 3.5 | 6.1 | 0.00 | 0.00 | 0.00 | 1007.1 | |
| 20260506020720 | 0 | 33 | 3.5 | 5.2 | 0.00 | 0.00 | 0.00 | 1007.5 | |
| 20260506020218 | 0 | 4 | 6.1 | 7.8 | 0.00 | 0.00 | 0.00 | 1007.5 | |
| 20260506015715 | 0 | 0 | 2.6 | 4.3 | 0.00 | 0.00 | 0.00 | 1007.5 | |
| 20260506015213 | 0 | 1 | 1.7 | 4.3 | 0.00 | 0.00 | 0.00 | 1007.1 | |
| 20260506014710 | 0 | 288 | 0.0 | 0.0 | 0.00 | 0.00 | 0.00 | 1006.8 | |
| 20260506014206 | 0 | 289 | 0.9 | 0.9 | 0.00 | 0.00 | 0.00 | 1006.8 | |
| 20260506013704 | 0 | 288 | 0.0 | 0.0 | 0.00 | 0.00 | 0.00 | 1006.8 | |
| 20260506013201 | 0 | 289 | 0.9 | 0.9 | 0.00 | 0.00 | 0.00 | 1006.4 | |
| 20260506012657 | 0 | 289 | 0.0 | 0.0 | 0.00 | 0.00 | 0.00 | 1006.4 | |
| 20260506012154 | 0 | 289 | 0.0 | 0.0 | 0.00 | 0.00 | 0.00 | 1006.4 | |
| 20260506011651 | 0 | 209 | 0.9 | 0.9 | 0.00 | 0.00 | 0.00 | 1006.4 | |
| 20260506011147 | 0 | 240 | 0.0 | 0.9 | 0.00 | 0.00 | 0.00 | 1006.4 | |
| 20260506010646 | 0 | 5 | 0.9 | 0.9 | 0.00 | 0.00 | 0.00 | 1006.8 | |
| 20260506010143 | 0 | 56 | 3.5 | 5.2 | 0.00 | 0.00 | 0.00 | 1006.8 | |
| 20260506005639 | 0 | 257 | 2.6 | 2.6 | 0.00 | 0.00 | 0.00 | 1006.0 | |
| 20260506005136 | 0 | 282 | 2.6 | 2.6 | 0.00 | 0.00 | 0.00 | 1006.0 | |
| 20260506004633 | 0 | 193 | 0.0 | 0.9 | 0.00 | 0.00 | 0.00 | 1006.0 | |
| 20260506004130 | 0 | 211 | 0.0 | 0.9 | 0.00 | 0.00 | 0.00 | 1005.7 | |
| 20260506003626 | 0 | 193 | 0.0 | 0.0 | 0.00 | 0.00 | 0.00 | 1005.7 | |
| 20260506003122 | 0 | 177 | 0.9 | 0.9 | 0.00 | 0.00 | 0.00 | 1005.0 | |
| 20260506002619 | 0 | 193 | 1.7 | 1.7 | 0.00 | 0.00 | 0.00 | 1005.3 | |
| 20260506002114 | 0 | 194 | 0.9 | 0.9 | 0.00 | 0.00 | 0.00 | 1005.7 | |
| 20260506001611 | 0 | 202 | 0.0 | 0.9 | 0.00 | 0.00 | 0.00 | 1005.3 | |
| 20260506001108 | 0 | 189 | 0.9 | 0.9 | 0.00 | 0.00 | 0.00 | 1005.3 | |
| 20260506000606 | 0 | 186 | 0.0 | 0.9 | 0.00 | 0.00 | 0.00 | 1005.7 | |
| 20260505235601 | 0 | 185 | 1.7 | 2.6 | 0.00 | 0.00 | 0.00 | 1005.7 | |
| 20260505235057 | 0 | 218 | 2.6 | 4.3 | 0.00 | 0.00 | 0.00 | 1005.7 | |
| 20260505234554 | 0 | 193 | 2.6 | 2.6 | 0.00 | 0.00 | 0.00 | 1005.7 | |
| 20260505234051 | 0 | 181 | 1.7 | 1.7 | 0.00 | 0.00 | 0.00 | 1005.3 | |
| 20260505233548 | 0 | 187 | 1.7 | 1.7 | 0.00 | 0.00 | 0.00 | 1005.0 | |
| 20260505233046 | 0 | 187 | 1.7 | 1.7 | 0.00 | 0.00 | 0.00 | 1005.3 | |
| 20260505232543 | 0 | 192 | 1.7 | 1.7 | 0.00 | 0.00 | 0.00 | 1005.0 | |
| 20260505232041 | 0 | 189 | 0.9 | 0.9 | 0.00 | 0.00 | 0.00 | 1005.3 | |
| 20260505231537 | 0 | 203 | 0.9 | 1.7 | 0.00 | 0.00 | 0.00 | 1005.3 | |
| 20260505231036 | 0 | 206 | 0.9 | 0.9 | 0.00 | 0.00 | 0.00 | 1005.0 | |
| 20260505230533 | 0 | 173 | 0.9 | 1.7 | 0.00 | 0.00 | 0.00 | 1005.3 | |
| 20260505230029 | 0 | 185 | 1.7 | 2.6 | 0.00 | 0.00 | 0.00 | 1005.3 | |
| 20260505225526 | 0 | 197 | 1.7 | 1.7 | 0.00 | 0.00 | 0.00 | 1005.3 | |
| 20260505225022 | 0 | 185 | 1.7 | 1.7 | 0.00 | 0.00 | 0.00 | 1005.0 | |
| 20260505224520 | 0 | 229 | 1.7 | 2.6 | 0.00 | 0.00 | 0.00 | 1005.0 | |
| 20260505224017 | 0 | 202 | 2.6 | 2.6 | 0.00 | 0.00 | 0.00 | 1005.0 | |
| 20260505223514 | 0 | 197 | 1.7 | 1.7 | 0.00 | 0.00 | 0.00 | 1005.0 | |
| 20260505223010 | 0 | 190 | 2.6 | 4.3 | 0.00 | 0.00 | 0.00 | 1005.0 | |
| 20260505222506 | 0 | 192 | 1.7 | 1.7 | 0.00 | 0.00 | 0.00 | 1005.0 | |
| 20260505222002 | 0 | 203 | 1.7 | 2.6 | 0.00 | 0.00 | 0.00 | 1005.0 | |
| 20260505221500 | 0 | 199 | 1.7 | 1.7 | 0.00 | 0.00 | 0.00 | 1005.0 | |
| 20260505220957 | 0 | 214 | 0.9 | 0.9 | 0.00 | 0.00 | 0.00 | 1005.3 | |
| 20260505220453 | 0 | 162 | 1.7 | 2.6 | 0.00 | 0.00 | 0.00 | 1005.7 | |
| 20260505215951 | 0 | 203 | 1.7 | 1.7 | 0.00 | 0.00 | 0.00 | 1005.0 | |
| 20260505215449 | 0 | 219 | 1.7 | 1.7 | 0.00 | 0.00 | 0.00 | 1005.3 | |
| 20260505214946 | 0 | 177 | 0.9 | 1.7 | 0.00 | 0.00 | 0.00 | 1005.0 | |
| 20260505214444 | 0 | 217 | 4.3 | 6.1 | 0.00 | 0.00 | 0.00 | 1005.0 | |
| 20260505213941 | 0 | 251 | 1.7 | 2.6 | 0.00 | 0.00 | 0.00 | 1005.7 | |
| 20260505213439 | 0 | 171 | 1.7 | 2.6 | 0.00 | 0.00 | 0.00 | 1005.3 | |
| 20260505212935 | 0 | 204 | 2.6 | 4.3 | 0.00 | 0.00 | 0.00 | 1005.3 | |
| 20260505212432 | 0 | 223 | 4.3 | 6.1 | 0.00 | 0.00 | 0.00 | 1005.3 | |
| 20260505211928 | 0 | 192 | 1.7 | 2.6 | 0.00 | 0.00 | 0.00 | 1005.3 | |
| 20260505211426 | 0 | 195 | 2.6 | 2.6 | 0.00 | 0.00 | 0.00 | 1005.3 | |
| 20260505210922 | 0 | 191 | 1.7 | 1.7 | 0.00 | 0.00 | 0.00 | 1005.7 | |
| 20260505210420 | 0 | 158 | 1.7 | 1.7 | 0.00 | 0.00 | 0.00 | 1005.7 | |
| 20260505205916 | 0 | 209 | 0.9 | 0.9 | 0.00 | 0.00 | 0.00 | 1005.3 | |
| 20260505205415 | 0 | 202 | 0.9 | 1.7 | 0.00 | 0.00 | 0.00 | 1005.7 | |
| 20260505204911 | 0 | 204 | 1.7 | 2.6 | 0.00 | 0.00 | 0.00 | 1005.7 | |
| 20260505204409 | 0 | 188 | 2.6 | 2.6 | 0.00 | 0.00 | 0.00 | 1005.7 | |
| 20260505203906 | 0 | 178 | 2.6 | 4.3 | 0.00 | 0.00 | 0.00 | 1005.7 | |
| 20260505203402 | 0 | 210 | 2.6 | 4.3 | 0.00 | 0.00 | 0.00 | 1005.7 | |
| 20260505202859 | 0 | 224 | 2.6 | 2.6 | 0.00 | 0.00 | 0.00 | 1005.7 | |
| 20260505202355 | 0 | 219 | 2.6 | 2.6 | 0.00 | 0.00 | 0.00 | 1005.7 | |
| 20260505201852 | 0 | 161 | 4.3 | 5.2 | 0.00 | 0.00 | 0.00 | 1005.7 | |
| 20260505201349 | 0 | 230 | 3.5 | 5.2 | 0.00 | 0.00 | 0.00 | 1006.0 | |
| 20260505200847 | 0 | 235 | 4.3 | 5.2 | 0.00 | 0.00 | 0.00 | 1006.0 | |
| 20260505200344 | 0 | 219 | 2.6 | 4.3 | 0.00 | 0.00 | 0.00 | 1005.7 | |
| 20260505195839 | 0 | 254 | 2.6 | 2.6 | 0.00 | 0.00 | 0.00 | 1006.0 | |
| 20260505195337 | 0 | 228 | 1.7 | 2.6 | 0.00 | 0.00 | 0.00 | 1005.7 | |
| 20260505194834 | 0 | 215 | 2.6 | 2.6 | 0.00 | 0.00 | 0.00 | 1005.7 | |
| 20260505194331 | 0 | 179 | 3.5 | 4.3 | 0.00 | 0.00 | 0.00 | 1005.7 | |
| 20260505193826 | 0 | 204 | 0.9 | 0.9 | 0.00 | 0.00 | 0.00 | 1006.0 | |
| 20260505193324 | 0 | 179 | 2.6 | 4.3 | 0.00 | 0.00 | 0.00 | 1005.7 | |
| 20260505192822 | 0 | 200 | 2.6 | 4.3 | 0.00 | 0.00 | 0.00 | 1005.7 | |
| 20260505192320 | 0 | 210 | 1.7 | 2.6 | 0.00 | 0.00 | 0.00 | 1005.7 | |
| 20260505191818 | 0 | 202 | 1.7 | 1.7 | 0.00 | 0.00 | 0.00 | 1005.7 | |
| 20260505191316 | 0 | 224 | 5.2 | 6.1 | 0.00 | 0.00 | 0.00 | 1006.0 | |
| 20260505190812 | 0 | 193 | 1.7 | 1.7 | 0.00 | 0.00 | 0.00 | 1005.7 | |
| 20260505190307 | 0 | 231 | 2.6 | 4.3 | 0.00 | 0.00 | 0.00 | 1005.7 | |
| 20260505185804 | 0 | 224 | 2.6 | 2.6 | 0.00 | 0.00 | 0.00 | 1006.0 | |
| 20260505185300 | 0 | 197 | 2.6 | 2.6 | 0.00 | 0.00 | 0.00 | 1006.0 | |
| 20260505184756 | 0 | 235 | 1.7 | 1.7 | 0.00 | 0.00 | 0.00 | 1006.0 | |
| 20260505184253 | 0 | 228 | 1.7 | 1.7 | 0.00 | 0.00 | 0.00 | 1006.0 | |
| 20260505183751 | 0 | 193 | 2.6 | 2.6 | 0.00 | 0.00 | 0.00 | 1006.0 | |
| 20260505183248 | 0 | 163 | 4.3 | 6.1 | 0.00 | 0.00 | 0.00 | 1006.0 | |
| 20260505182744 | 0 | 218 | 5.2 | 8.7 | 0.00 | 0.00 | 0.00 | 1006.0 | |
| 20260505182241 | 0 | 200 | 3.5 | 5.2 | 0.00 | 0.00 | 0.00 | 1006.0 | |
| 20260505181737 | 0 | 217 | 1.7 | 2.6 | 0.00 | 0.00 | 0.00 | 1006.0 | |
| 20260505181235 | 0 | 193 | 3.5 | 4.3 | 0.00 | 0.00 | 0.00 | 1006.4 | |
| 20260505180731 | 0 | 194 | 4.3 | 5.2 | 0.00 | 0.00 | 0.00 | 1006.4 | |
| 20260505180228 | 0 | 188 | 1.7 | 2.6 | 0.00 | 0.00 | 0.00 | 1006.0 | |
| 20260505175724 | 0 | 172 | 3.5 | 5.2 | 0.00 | 0.00 | 0.00 | 1005.7 | |
| 20260505175221 | 0 | 204 | 0.9 | 1.7 | 0.00 | 0.00 | 0.00 | 1005.7 | |
| 20260505174718 | 0 | 201 | 3.5 | 4.3 | 0.00 | 0.00 | 0.00 | 1006.0 | |
| 20260505174215 | 0 | 221 | 2.6 | 2.6 | 0.00 | 0.00 | 0.00 | 1006.0 | |
| 20260505173710 | 0 | 188 | 2.6 | 2.6 | 0.00 | 0.00 | 0.00 | 1005.7 | |
| 20260505173208 | 0 | 193 | 2.6 | 5.2 | 0.00 | 0.00 | 0.00 | 1005.3 | |
| 20260505172705 | 0 | 190 | 3.5 | 6.1 | 0.00 | 0.00 | 0.00 | 1005.0 | |
| 20260505172201 | 0 | 178 | 4.3 | 5.2 | 0.00 | 0.00 | 0.00 | 1005.3 | |
| 20260505171701 | 0 | 182 | 2.6 | 4.3 | 0.00 | 0.00 | 0.00 | 1005.3 | |
| 20260505171159 | 0 | 190 | 4.3 | 6.1 | 0.00 | 0.00 | 0.00 | 1006.4 | |
| 20260505170655 | 0 | 167 | 2.6 | 4.3 | 0.00 | 0.00 | 0.00 | 1007.5 | |
| 20260505170152 | 0 | 202 | 1.7 | 2.6 | 0.00 | 0.00 | 0.00 | 1007.1 | |
| 20260505165652 | 0 | 213 | 4.3 | 6.1 | 0.00 | 0.00 | 0.00 | 1006.8 | |
| 20260505165148 | 0 | 222 | 1.7 | 2.6 | 0.00 | 0.00 | 0.00 | 1006.8 | |
| 20260505164644 | 0 | 237 | 1.7 | 2.6 | 0.00 | 0.00 | 0.00 | 1006.0 | |
| 20260505164142 | 0 | 169 | 3.5 | 5.2 | 0.00 | 0.00 | 0.00 | 1006.0 | |
| 20260505163640 | 0 | 237 | 4.3 | 5.2 | 0.00 | 0.00 | 0.00 | 1006.0 | |
| 20260505163138 | 0 | 195 | 0.9 | 1.7 | 0.00 | 0.00 | 0.00 | 1006.0 | |
| 20260505162635 | 0 | 192 | 2.6 | 4.3 | 0.00 | 0.00 | 0.00 | 1006.0 | |
| 20260505162132 | 0 | 231 | 1.7 | 1.7 | 0.00 | 0.00 | 0.00 | 1006.0 | |
| 20260505161629 | 0 | 194 | 3.5 | 5.2 | 0.00 | 0.00 | 0.00 | 1006.0 | |
| 20260505161126 | 0 | 213 | 2.6 | 4.3 | 0.00 | 0.00 | 0.00 | 1006.0 | |
| 20260505160624 | 0 | 220 | 2.6 | 2.6 | 0.00 | 0.00 | 0.00 | 1006.0 | |
| 20260505160121 | 0 | 204 | 1.7 | 2.6 | 0.00 | 0.00 | 0.00 | 1005.7 |